Ben Gurion International Airport, Israel

6:25 PM IST on February 19, 2018 (GMT +0200)
Ben Gurion International Airport

Weather History for 40180 - April, 2013

Change the Weather History Date:

Saturday, April 6, 2013

  Actual Average Record
Temperature  
Mean Temperature 64 °F -  
Max Temperature 73 °F 74 °F - ()
Min Temperature 56 °F 57 °F - ()
Growing Degree Days 14 (Base 50)    
Moisture  
Dew Point 54 °F    
Average Humidity 68    
Maximum Humidity 88    
Minimum Humidity 45    
Precipitation  
Precipitation 0.00 in - - ()
Sea Level Pressure  
Sea Level Pressure 30.02 in    
Wind  
Wind Speed 5 mph ()    
Max Wind Speed 12 mph    
Max Gust Speed -    
Visibility 6.2 miles    
Events      
T = Trace of Precipitation, MM = Missing Value Source: Averaged Metar Reports

Daily Weather History Graph

Daily Weather History Graph

Search for Another Location

Airport or City:

Trip Planner

Search our weather history database for the weather conditions in past years. The results will help you decide how hot, cold, wet, or windy it might be!

Date:

Astronomy

Apr. 06, 2013 Rise Set
Actual Time 6:22 AM IDT 7:03 PM IDT
Civil Twilight 5:57 AM IDT 7:28 PM IDT
Nautical Twilight 5:28 AM IDT 7:57 PM IDT
Astronomical Twilight 4:59 AM IDT 8:27 PM IDT
Moon 3:39 AM IDT (4/6) 3:22 PM IDT (4/6)
Length of Visible Light 13h 30m
Length of Day
12h 40m
Waning Crescent, 17% of the Moon is Illuminated
Apr 6
Waning Crescent
Apr 10
New
Apr 18
First Quarter
Apr 25
Full
May 2
Last Quarter

Hourly Weather History & Observations

Time (IDT) Temp. Dew Point Humidity Pressure Visibility Wind Dir Wind Speed Gust Speed Precip Events Conditions
12:20 AM 60.8 °F 53.6 °F 77% 30.04 in 6.2 mi South 5.8 mph - N/A   Partly Cloudy
12:50 AM 59.0 °F 53.6 °F 82% 30.04 in 6.2 mi South 5.8 mph - N/A   Partly Cloudy
1:20 AM 59.0 °F 53.6 °F 82% 30.04 in 6.2 mi Variable 3.5 mph - N/A   Partly Cloudy
1:50 AM 59.0 °F 53.6 °F 82% 30.04 in 6.2 mi Variable 3.5 mph - N/A   Partly Cloudy
2:20 AM 59.0 °F 53.6 °F 82% 30.04 in 6.2 mi SSE 5.8 mph - N/A   Partly Cloudy
2:50 AM 59.0 °F 53.6 °F 82% 30.04 in 6.2 mi SSE 4.6 mph - N/A   Scattered Clouds
3:00 AM 59 °F 54 °F 77% 30.04 in 6 mi SSE 4.6 mph - -   Partly Cloudy
3:20 AM 59.0 °F 53.6 °F 82% 30.04 in 6.2 mi SSE 4.6 mph - N/A   Scattered Clouds
3:50 AM 59.0 °F 53.6 °F 82% 30.04 in 6.2 mi Variable 2.3 mph - N/A   Scattered Clouds
4:20 AM 59.0 °F 53.6 °F 82% 30.04 in 6.2 mi Variable 1.2 mph - N/A   Partly Cloudy
4:50 AM 59.0 °F 53.6 °F 82% 30.04 in - Variable 3.5 mph - N/A   Clear
5:20 AM 57.2 °F 53.6 °F 88% 30.04 in - Variable 3.5 mph - N/A   Clear
5:50 AM 57.2 °F 53.6 °F 88% 30.04 in - Variable 2.3 mph - N/A   Clear
6:20 AM 57.2 °F 53.6 °F 88% 30.04 in - Variable 2.3 mph - N/A   Clear
6:50 AM 57.2 °F 51.8 °F 82% 30.06 in - East 4.6 mph - N/A   Clear
7:20 AM 59.0 °F 51.8 °F 77% 30.06 in - Variable 2.3 mph - N/A   Clear
7:50 AM 59.0 °F 53.6 °F 82% 30.06 in - SE 4.6 mph - N/A   Clear
8:20 AM 60.8 °F 53.6 °F 77% 30.06 in - Variable 3.5 mph - N/A   Clear
8:50 AM 60.8 °F 53.6 °F 77% 30.06 in 6.2 mi Variable 3.5 mph - N/A   Partly Cloudy
9:00 AM 64 °F 54 °F 62% 30.08 in 6 mi 3.5 mph - -   Scattered Clouds
9:20 AM 66.2 °F 55.4 °F 68% 30.06 in 6.2 mi Variable 3.5 mph - N/A   Scattered Clouds
9:50 AM 66.2 °F 53.6 °F 64% 30.06 in 6.2 mi Variable 2.3 mph - N/A   Scattered Clouds
10:20 AM 68.0 °F 53.6 °F 60% 30.06 in 6.2 mi Variable 2.3 mph - N/A   Scattered Clouds
10:50 AM 69.8 °F 51.8 °F 53% 30.06 in 6.2 mi Variable 2.3 mph - N/A   Scattered Clouds
11:20 AM 69.8 °F 51.8 °F 53% 30.06 in 6.2 mi Variable 3.5 mph - N/A   Partly Cloudy
11:50 AM 71.6 °F 53.6 °F 53% 30.04 in 6.2 mi Variable 2.3 mph - N/A   Partly Cloudy
12:20 PM 71.6 °F 53.6 °F 53% 30.04 in 6.2 mi WNW 6.9 mph - N/A   Partly Cloudy
12:50 PM 71.6 °F 55.4 °F 57% 30.04 in 6.2 mi WNW 10.4 mph - N/A   Partly Cloudy
1:20 PM 73.4 °F 55.4 °F 53% 30.01 in - NW 8.1 mph - N/A   Clear
1:50 PM 71.6 °F 55.4 °F 57% 30.01 in - West 9.2 mph - N/A   Clear
2:20 PM 71.6 °F 55.4 °F 57% 30.01 in - West 9.2 mph - N/A   Clear
2:50 PM 71.6 °F 53.6 °F 53% 29.98 in - WNW 11.5 mph - N/A   Clear
3:00 PM 71 °F 54 °F 45% 29.99 in 6 mi WNW 11.5 mph - -  
3:20 PM 71.6 °F 53.6 °F 53% 29.98 in - WNW 10.4 mph - N/A   Clear
3:50 PM 71.6 °F 55.4 °F 57% 29.98 in - WNW 10.4 mph - N/A   Clear
4:20 PM 71.6 °F 55.4 °F 57% 29.98 in - WNW 10.4 mph - N/A   Clear
4:50 PM 71.6 °F 53.6 °F 53% 29.98 in - WNW 8.1 mph - N/A   Clear
5:20 PM 71.6 °F 51.8 °F 50% 29.98 in - Variable 6.9 mph - N/A   Clear
5:50 PM 71.6 °F 53.6 °F 53% 29.95 in - NNW 5.8 mph - N/A   Clear
6:20 PM 71.6 °F 53.6 °F 53% 29.95 in - North 5.8 mph - N/A   Clear
6:50 PM 71.6 °F 53.6 °F 53% 29.95 in - NNW 5.8 mph - N/A   Clear
7:20 PM 68.0 °F 55.4 °F 64% 29.95 in - North 5.8 mph - N/A   Clear
7:50 PM 68.0 °F 55.4 °F 64% 29.95 in - North 5.8 mph - N/A   Clear
8:20 PM 66.2 °F 55.4 °F 68% 29.95 in - North 4.6 mph - N/A   Clear
8:50 PM 66.2 °F 55.4 °F 68% 29.98 in - North 4.6 mph - N/A   Clear
9:00 PM 66 °F 56 °F 61% 29.98 in 6 mi North 4.6 mph - -  
9:20 PM 64.4 °F 55.4 °F 73% 29.98 in - North 4.6 mph - N/A   Clear
9:50 PM 64.4 °F 55.4 °F 73% 29.98 in - North 4.6 mph - N/A   Clear
10:20 PM 64.4 °F 55.4 °F 73% 29.98 in - Variable 2.3 mph - N/A   Clear
10:50 PM 62.6 °F 55.4 °F 77% 29.98 in - NE 4.6 mph - N/A   Clear
11:20 PM 62.6 °F 55.4 °F 77% 29.98 in - NNE 5.8 mph - N/A   Clear
11:50 PM 62.6 °F 55.4 °F 77% 29.98 in - NNE 6.9 mph - N/A   Clear